Previsão horária em 10-y Oktyabr

Hoje, 11 Abril, Domingo

Tempo Temperatura Precipitação Vento Pressão Humidade
00:00 +3°C° 0 mm 2 m/s 749 mmHg 62%
01:00 +3°C° 0 mm 2 m/s 749 mmHg 63%
02:00 +3°C° 0 mm 2 m/s 750 mmHg 65%
03:00 +2°C° 0 mm 2 m/s 750 mmHg 66%
04:00 +2°C° 0 mm 2 m/s 750 mmHg 67%
05:00 +2°C° 0 mm 2 m/s 750 mmHg 68%
06:00 +3°C° 0 mm 1 m/s 750 mmHg 70%
07:00 +4°C° 0 mm 1 m/s 751 mmHg 65%
08:00 +6°C° 0 mm 1 m/s 751 mmHg 60%
09:00 +8°C° 0 mm 1 m/s 752 mmHg 54%
10:00 +9°C° 0 mm 1 m/s 752 mmHg 50%
11:00 +11°C° 0 mm 1 m/s 752 mmHg 46%
12:00 +11°C° 0 mm 0 m/s 752 mmHg 42%
13:00 +12°C° 0 mm 0 m/s 752 mmHg 40%
14:00 +14°C° 0 mm 1 m/s 752 mmHg 39%
15:00 +14°C° 0 mm 1 m/s 752 mmHg 37%
16:00 +14°C° 0 mm 2 m/s 752 mmHg 40%
17:00 +14°C° 0 mm 2 m/s 752 mmHg 42%
18:00 +14°C° 0 mm 2 m/s 752 mmHg 45%
19:00 +12°C° 0 mm 2 m/s 752 mmHg 50%
20:00 +10°C° 0 mm 2 m/s 752 mmHg 54%
21:00 +9°C° 0 mm 2 m/s 753 mmHg 59%
22:00 +8°C° 0 mm 2 m/s 753 mmHg 62%
23:00 +7°C° 0 mm 3 m/s 753 mmHg 65%

Amanhã, 12 Abril, Segunda-feira

Tempo Temperatura Precipitação Vento Pressão Humidade
00:00 +7°C° 0 mm 3 m/s 753 mmHg 68%
01:00 +5°C° 0 mm 3 m/s 753 mmHg 69%
02:00 +5°C° 0 mm 3 m/s 753 mmHg 70%
03:00 +4°C° 0 mm 3 m/s 753 mmHg 71%
04:00 +4°C° 0 mm 4 m/s 753 mmHg 70%
05:00 +4°C° 0 mm 4 m/s 753 mmHg 68%
06:00 +3°C° 0 mm 4 m/s 753 mmHg 67%
07:00 +3°C° 0 mm 5 m/s 753 mmHg 63%
08:00 +5°C° 0 mm 5 m/s 752 mmHg 60%
09:00 +5°C° 0 mm 6 m/s 752 mmHg 57%
10:00 +7°C° 0 mm 6 m/s 752 mmHg 62%
11:00 +8°C° 0 mm 6 m/s 752 mmHg 66%
12:00 +9°C° 0 mm 6 m/s 752 mmHg 71%
13:00 +10°C° 0 mm 6 m/s 751 mmHg 69%
14:00 +11°C° 0 mm 6 m/s 751 mmHg 67%
15:00 +13°C° 0 mm 5 m/s 751 mmHg 66%
16:00 +13°C° 0 mm 5 m/s 750 mmHg 69%
17:00 +13°C° 0 mm 5 m/s 750 mmHg 70%
18:00 +13°C° 0 mm 4 m/s 750 mmHg 72%
19:00 +12°C° 0 mm 4 m/s 750 mmHg 77%
20:00 +11°C° 0 mm 4 m/s 750 mmHg 82%
21:00 +10°C° 0 mm 3 m/s 750 mmHg 87%
22:00 +10°C° 0 mm 3 m/s 749 mmHg 87%
23:00 +9°C° 0 mm 3 m/s 749 mmHg 87%

Depois de amanhã, 13 Abril, Terça-feira

Tempo Temperatura Precipitação Vento Pressão Humidade
00:00 +9°C° 0 mm 3 m/s 749 mmHg 87%
01:00 +9°C° 0 mm 3 m/s 749 mmHg 86%
02:00 +8°C° 0 mm 3 m/s 749 mmHg 84%
03:00 +8°C° 0 mm 3 m/s 749 mmHg 83%
04:00 +8°C° 0 mm 3 m/s 749 mmHg 82%
05:00 +7°C° 0 mm 3 m/s 749 mmHg 81%
06:00 +7°C° 0 mm 3 m/s 749 mmHg 80%
07:00 +9°C° 0 mm 3 m/s 749 mmHg 73%
08:00 +10°C° 0 mm 4 m/s 749 mmHg 66%
09:00 +12°C° 0 mm 4 m/s 749 mmHg 58%
10:00 +14°C° 0 mm 5 m/s 749 mmHg 53%
11:00 +16°C° 0 mm 5 m/s 749 mmHg 47%
12:00 +17°C° 0 mm 5 m/s 749 mmHg 42%
13:00 +19°C° 0 mm 5 m/s 748 mmHg 39%
14:00 +19°C° 0 mm 5 m/s 748 mmHg 36%
15:00 +20°C° 0 mm 5 m/s 748 mmHg 33%
16:00 +19°C° 0 mm 5 m/s 748 mmHg 36%
17:00 +19°C° 0 mm 4 m/s 748 mmHg 39%
18:00 +18°C° 0 mm 3 m/s 747 mmHg 42%
19:00 +17°C° 0 mm 3 m/s 747 mmHg 48%
20:00 +14°C° 0 mm 3 m/s 747 mmHg 53%
21:00 +13°C° 0 mm 3 m/s 747 mmHg 58%
22:00 +12°C° 0 mm 4 m/s 747 mmHg 59%
23:00 +12°C° 0 mm 4 m/s 747 mmHg 60%

14 Abril, Quarta-feira

Tempo Temperatura Precipitação Vento Pressão Humidade
00:00 +11°C° 0 mm 4 m/s 747 mmHg 62%
01:00 +11°C° 0 mm 4 m/s 747 mmHg 64%
02:00 +10°C° 0 mm 4 m/s 747 mmHg 67%
03:00 +9°C° 0 mm 3 m/s 747 mmHg 70%
04:00 +9°C° 0 mm 3 m/s 747 mmHg 71%
05:00 +8°C° 0 mm 3 m/s 746 mmHg 71%
06:00 +8°C° 0 mm 3 m/s 746 mmHg 72%
07:00 +9°C° 0 mm 3 m/s 746 mmHg 67%
08:00 +11°C° 0 mm 3 m/s 746 mmHg 62%
09:00 +12°C° 0 mm 4 m/s 746 mmHg 57%
10:00 +14°C° 0 mm 4 m/s 746 mmHg 50%
11:00 +16°C° 0 mm 5 m/s 746 mmHg 44%
12:00 +17°C° 0 mm 5 m/s 745 mmHg 37%
13:00 +19°C° 0 mm 5 m/s 745 mmHg 35%
14:00 +19°C° 0 mm 6 m/s 745 mmHg 33%
15:00 +20°C° 0 mm 6 m/s 744 mmHg 30%
16:00 +19°C° 0 mm 5 m/s 744 mmHg 34%
17:00 +18°C° 0 mm 4 m/s 744 mmHg 37%
18:00 +18°C° 0 mm 3 m/s 744 mmHg 40%
19:00 +16°C° 0 mm 3 m/s 744 mmHg 44%
20:00 +14°C° 0 mm 3 m/s 744 mmHg 48%
21:00 +13°C° 0 mm 3 m/s 743 mmHg 51%
22:00 +12°C° 0 mm 3 m/s 743 mmHg 53%
23:00 +12°C° 0 mm 2 m/s 743 mmHg 55%

15 Abril, Quinta-feira

Tempo Temperatura Precipitação Vento Pressão Humidade
00:00 +12°C° 0 mm 2 m/s 743 mmHg 57%
01:00 +10°C° 0 mm 2 m/s 743 mmHg 59%
02:00 +10°C° 0 mm 2 m/s 743 mmHg 61%
03:00 +10°C° 0 mm 1 m/s 743 mmHg 64%
04:00 +9°C° 0 mm 2 m/s 743 mmHg 65%
05:00 +9°C° 0 mm 2 m/s 743 mmHg 66%
06:00 +9°C° 0 mm 2 m/s 743 mmHg 68%
07:00 +10°C° 0 mm 2 m/s 743 mmHg 64%
08:00 +12°C° 0 mm 2 m/s 743 mmHg 61%
09:00 +13°C° 0 mm 2 m/s 743 mmHg 57%
10:00 +14°C° 0 mm 2 m/s 743 mmHg 53%
11:00 +16°C° 0 mm 2 m/s 743 mmHg 49%
12:00 +17°C° 0 mm 2 m/s 743 mmHg 45%
13:00 +17°C° 0 mm 2 m/s 742 mmHg 43%
14:00 +18°C° 0 mm 2 m/s 742 mmHg 41%
15:00 +19°C° 0 mm 2 m/s 742 mmHg 39%
16:00 +18°C° 0 mm 2 m/s 742 mmHg 42%
17:00 +18°C° 0 mm 2 m/s 742 mmHg 45%
18:00 +18°C° 0 mm 1 m/s 742 mmHg 49%
19:00 +16°C° 0 mm 2 m/s 742 mmHg 51%
20:00 +15°C° 0 mm 2 m/s 742 mmHg 53%
21:00 +14°C° 0 mm 2 m/s 742 mmHg 55%
22:00 +13°C° 0 mm 2 m/s 742 mmHg 58%
23:00 +12°C° 0 mm 3 m/s 742 mmHg 60%

16 Abril, Sexta-feira

Tempo Temperatura Precipitação Vento Pressão Humidade
00:00 +11°C° 0 mm 3 m/s 742 mmHg 62%
01:00 +11°C° 0 mm 4 m/s 742 mmHg 66%
02:00 +10°C° 0 mm 4 m/s 742 mmHg 71%
03:00 +9°C° 0 mm 5 m/s 742 mmHg 76%
04:00 +8°C° 0 mm 6 m/s 742 mmHg 79%
05:00 +8°C° 0 mm 6 m/s 743 mmHg 82%
06:00 +6°C° 0 mm 7 m/s 743 mmHg 85%
07:00 +6°C° 0 mm 8 m/s 743 mmHg 83%
08:00 +6°C° 0 mm 8 m/s 744 mmHg 82%
09:00 +6°C° 0 mm 9 m/s 744 mmHg 80%
10:00 +6°C° 0.1 mm 9 m/s 745 mmHg 79%
11:00 +6°C° 0.1 mm 9 m/s 745 mmHg 78%
12:00 +6°C° 0.1 mm 9 m/s 746 mmHg 77%
13:00 +6°C° 0 mm 9 m/s 746 mmHg 73%
14:00 +6°C° 0 mm 9 m/s 746 mmHg 69%
15:00 +7°C° 0 mm 9 m/s 746 mmHg 65%
16:00 +7°C° 0 mm 9 m/s 746 mmHg 59%
17:00 +7°C° 0 mm 9 m/s 747 mmHg 54%
18:00 +7°C° 0 mm 8 m/s 747 mmHg 48%
19:00 +6°C° 0 mm 8 m/s 747 mmHg 48%
20:00 +6°C° 0 mm 8 m/s 748 mmHg 49%
21:00 +5°C° 0 mm 8 m/s 748 mmHg 49%
22:00 +4°C° 0 mm 7 m/s 749 mmHg 51%
23:00 +3°C° 0 mm 7 m/s 749 mmHg 53%
Mostrar mais